Flag for Germany Weather past 2 weeks in Lampertheim, Hesse, Germany

Now
59 °F

Partly sunny.


Feels Like: 58 °F
Forecast: 39 / 62 °F
Wind: 8 mph from West

Location: Baden Wurttemberg - Neuostheim

Current Time: Sep 22, 2014 at 3:24:37 PM

Latest Report: Sep 22, 2014 at 2:50 PM


Visibility: N/A

Pressure: 30.07 "Hg

Humidity: 68%

Dew point: 48 °F

Location of LampertheimLocation

Historic Weather in Lampertheim — Graph

°F

Lampertheim temperature yesterday

Maximum temperature yesterday: 68 °F (at 1:20 PM)
Minimum temperature yesterday: 59 °F (at 6:50 PM)
Average temperature yesterday: 63 °F

Past Weeks' High & Low Weather Summary

 TemperatureHumidityPressure
High79 °F (Sep 17, 3:20 PM)100% (Sep 15, 4:20 AM)30.18 "Hg (Sep 15, 4:20 AM)
Low48 °F (Sep 22, 6:50 AM)39% (Sep 17, 4:20 PM)29.86 "Hg (Sep 17, 3:20 PM)
Average65 °F74%30.00 "Hg
* Reported Sep 7 1:20 PM — Sep 22 1:50 PM, Lampertheim, Weather by CustomWeather, © 2014

Note: Actual official high and low records may vary slightly from our data, if they occured in-between our weather recording intervals... More about our weather records

Advertising

Lampertheim weather history for previous 24 hours

 ConditionsComfort  
Time TempWeatherWind HumidityBarometerVisibility
1:50 PM
Sep 22
57 °FMixture of precip. Broken clouds.10 mph67%30.07 "HgN/A
1:20 PM59 °FBroken clouds.12 mph63%30.07 "HgN/A
12:50 PM59 °FBroken clouds.10 mph59%30.09 "HgN/A
12:20 PM57 °FPartly sunny.12 mph63%30.09 "HgN/A
11:50 AM57 °FPartly sunny.10 mph67%30.12 "HgN/A
11:20 AM55 °FPartly sunny.12 mph72%30.12 "HgN/A
10:50 AM57 °FPartly sunny.9 mph72%30.12 "HgN/A
10:20 AM55 °FPartly sunny.12 mph77%30.12 "HgN/A
9:50 AM57 °FPartly sunny.9 mph72%30.12 "HgN/A
9:20 AM55 °FPassing clouds.7 mph82%30.12 "HgN/A
8:50 AM54 °FPartly sunny.7 mph82%30.12 "HgN/A
8:20 AM54 °FPartly sunny.5 mph82%30.12 "HgN/A
7:50 AM52 °FPassing clouds.5 mph94%30.12 "Hg6 mi
7:20 AM48 °FPassing clouds.2 mph100%30.12 "Hg4 mi
6:50 AM48 °FPassing clouds.1 mph94%30.12 "Hg4 mi
6:20 AM50 °FPassing clouds.2 mph94%30.12 "Hg5 mi
5:50 AM50 °FPassing clouds.2 mph94%30.12 "Hg4 mi
7:50 PM
Sep 21
59 °FPartly sunny.5 mph94%30.01 "HgN/A
7:20 PM59 °FRain. Partly sunny.7 mph94%30.01 "Hg3 mi
6:50 PM59 °FLight rain. Partly sunny.5 mph94%30.01 "HgN/A
6:20 PM61 °FRain. Scattered clouds.6 mph88%30.01 "Hg4 mi
5:50 PM61 °FLight rain. Mostly cloudy.7 mph88%29.98 "HgN/A
5:20 PM61 °FLight rain. Mostly cloudy.10 mph88%29.98 "Hg6 mi
4:50 PM63 °FLight rain. Partly sunny.8 mph94%29.98 "Hg5 mi
4:20 PM61 °FRain. Broken clouds.9 mph100%29.98 "Hg4 mi
3:50 PM61 °FRain. Scattered clouds.10 mph94%29.95 "Hg3 mi
3:20 PM64 °FThunderstorms. Broken clouds.8 mph88%29.95 "Hg4 mi
Weather by CustomWeather, © 2014

See weather overviewHow to use our weather pages